Regional Weather Roundup
Issued by NWS Midland/Odessa, TX

Home | Current Version | Previous Version | Text Only | Print | Product List | Glossary On
Versions: 1 2 3 4 5 6 7 8 9 10 11 12 13 14 15 16 17 18 19 20 21 22 23 24 25 26 27 28 29 30 31 32 33 34 35 36 37 38 39 40 41 42 43 44 45 46 47 48 49 50
000
ASUS44 KMAF 010410
RWRMAF
MIDLAND AREA WEATHER ROUNDUP
NATIONAL WEATHER SERVICE MIDLAND TX
1100 PM CDT TUE MAY 31 2016

...IN SOUTHWEST TEXAS AND SOUTHEAST NEW MEXICO...

CITY           SKY/WX    TMP DP  RH WIND       PRES   REMARKS
ALPINE         CLOUDY    56  54  91 N13       30.06F
ANDREWS        RAIN      62  60  94 E15       29.98R
ARTESIA        CLOUDY    64  52  63 N25G33    30.01R
BIG SPRING     CLOUDY    67  62  82 S12       29.93R
CARLSBAD       CLOUDY    67  59  75 NW8       29.96R
DRYDEN           N/A     70  61  73 W3        29.91R
FORT STOCKTON  NOT AVBL
GUAD PASS      NOT AVBL
HOBBS          CLOUDY    61  61 100 NE9       29.99R
MARFA          CLOUDY    58  53  84 NE7       30.06F
MIDLAND AIRPK  TSTM      69  61  75 W8G18     29.99R
MIDLAND INTL   LGT RAIN  66  60  81 NW21      29.98R
ODESSA         TSTM      62  59  90 N25G33    30.00R FOG
PECOS          CLOUDY    66  61  83 NE12      29.89F
PRESIDIO       RAIN      68  60  74 W8        29.98R
SEMINOLE       CLOUDY    62  59  91 E7        30.01R
SNYDER           N/A     68  65  89 SE6       29.91R
WINK           CLOUDY    67  60  78 E14       29.92R
$$
...OTHER STATIONS IN TEXAS...

CITY           SKY/WX    TMP DP  RH WIND       PRES   REMARKS
ABILENE        CLOUDY    67  65  93 E7        29.91R
AMARILLO       CLOUDY    63  56  78 E12       30.03R
AUSTIN         MOCLDY    68  67  96 CALM      29.87F
BROWNSVILLE    CLOUDY    80  75  84 SE7       29.85R
CORPUS CHRISTI TSTM      76  71  85 SE24G35   29.80R
DALLAS FTW     MOCLDY    70  65  84 E9        29.88F
DEL RIO        CLOUDY    74  69  85 E8        29.83R
EL PASO        MOCLDY    76  40  27 N15       29.92R
HOUSTON INT    CLOUDY    77  71  82 S7        29.87F
LUBBOCK        LGT RAIN  69  62  78 SE8       29.99R
SAN ANGELO     CLOUDY    68  63  84 S9        29.87R
SAN ANTONIO    CLOUDY    71  67  87 E7        29.89R
WACO           CLOUDY    69  67  93 E8        29.90R
WICHITA FALLS  NOT AVBL
$$
...OTHER LOCATIONS IN NEW MEXICO...

CITY           SKY/WX    TMP DP  RH WIND       PRES   REMARKS
ALAMAGORDO     CLOUDY    73  37  27 E5        29.96R
ALBUQUERQUE    CLOUDY    67  36  31 E8        30.04R
CANNON AFB     TSTM      55  55 100 N22G29    30.09R FOG
CLOVIS         CLOUDY    63  50  63 W18G32    30.08R THUNDER
HOLLOMAN AFB   CLOUDY    72  40  30 E6        29.94R
ROSWELL        CLOUDY    63  49  60 N20G28    30.00S
RUIDOSO          N/A     54  39  58 W9        30.15S
SANTA FE       CLOUDY    54  39  57 SW9       30.10R
TRUTH OR CONSE LGT RAIN  66  46  48 NE15      30.02R
TUCUMCARI      RAIN      58  54  86 W15       30.06S
$$




USA.gov is the U.S. government's official web portal to all federal, state and local government web resources and services.